www.pogodaiklimat.ru
ПОГОДА в Норт Адамс
Время
и дата
19:52 05.05
20:52 05.05
21:52 05.05
22:30 05.05
22:52 05.05
23:37 05.05
23:52 05.05
00:52 06.05
01:52 06.05
02:52 06.05
03:52 06.05
04:52 06.05
05:52 06.05
06:52 06.05
07:21 06.05
07:33 06.05
07:52 06.05
08:09 06.05
08:52 06.05
09:52 06.05
10:52 06.05
11:52 06.05
12:52 06.05
13:52 06.05
14:52 06.05
15:52 06.05
16:52 06.05
17:52 06.05
18:52 06.05
19:52 06.05
20:52 06.05
21:52 06.05
22:52 06.05
23:52 06.05
00:52 07.05
01:52 07.05
02:52 07.05
03:52 07.05
04:52 07.05
05:52 07.05
06:52 07.05
07:52 07.05
08:52 07.05
09:52 07.05
10:52 07.05
11:52 07.05
12:52 07.05
13:52 07.05
Ветер
(напр.,м/с)
Видим. Явления Облачность Т
(С)
Тd
(С)
f
(%)
Тe
(С)
Тes
(С)
Комфортность P
(гПа)
Po
(гПа)
Тmin
(С)
Tmax
(С)
R
(мм)
R24
(мм)
S
(см)
З 1 16 км слабый дождь 10/10 420 м +10.6 +9.4 92 +8 +8 1008.0 984.1
З 2 16 км слабый дождь 10/10 420 м +10.0 +8.9 93 +7 +7 1009.1 985.1
З 1 16 км 10/10 420 м +9.4 +8.3 93 +7 +7 1008.9 985.1 1.5
З 1 16 км 10/10 450 м +9.4 +7.8 90 +8 +8 984.8
З 1 16 км 10/10 450 м +9.4 +6.7 83 +7 +7 1008.9 985.1
З 1 6 км слабый дождь, дымка 10/10 390 м +8.9 +7.8 93 +6 +6 985.1
З 2 8 км слабый дождь, дымка 10/10 390 м +8.9 +8.3 96 +6 +6 1009.1 985.1
З 2 16 км 10/10 450 м +8.9 +8.3 96 +6 +6 1009.0 985.1 +8.9 +11.1 2.5
З 2 16 км 10/10 510 м +8.9 +7.8 93 +5 +5 1009.3 985.4
З 2 16 км 10/10 480 м +8.9 +5.6 80 +5 +5 1009.6 985.8
З 1 16 км 10/10 570 м +8.3 +5.0 80 +6 +6 1009.9 986.1
З 2 16 км 10/10 720 м +8.3 +4.4 76 +5 +5 1010.7 986.8
З 2 16 км 10/10 750 м +7.8 +3.9 76 +5 +5 1011.6 987.7
З 2 16 км 8/8 750 м +8.9 +4.4 73 +6 +6 1012.7 988.7 +7.8 +8.9 10.7
З 2
{4}
16 км 8/8 720 м +8.9 +3.3 68 +6 +6 988.7
З 3
{4}
16 км 10/10 690 м +8.9 +3.3 68 +5 +5 988.7
З 2
{4}
16 км 10/10 810 м +8.9 +2.2 63 +6 +6 1013.1 989.1
нст 1 16 км 8/8 900 м +10.0 +3.3 63 +8 +9 989.1
СЗ 2 16 км 8/8 1410 м +10.6 +2.2 56 +8 +9 1013.4 989.4
СЗ 2
{4}
16 км 5/5 1410 м +12.2 +2.8 53 +10 +14 1013.3 989.4
нст 1
{5}
16 км 5/5 1470 м +12.8 +1.7 47 +12 +18 1013.3 989.4
З 3
{6}
16 км 2/2 1650 м +13.9 -0.6 37 +12 +18 1012.9 989.1
СЗ 2
{4}
16 км 2/2 1800 м +14.4 +0.6 39 +13 +23 1012.6 988.7 +8.9 +14.4
СЗ 3
{4}
16 км ясно +15.0 -1.1 33 +14 +20 1012.1 988.1
С 2
{4}
16 км ясно +15.6 0.0 34 +15 +22 1011.7 987.7
нст 1 16 км ясно +15.6 -1.1 32 +15 +24 1012.1 988.1
нст 1 16 км ясно +15.6 -2.2 29 +15 +20 1012.2 988.4
нст 1 16 км ясно +14.4 -2.8 30 +14 +17 1012.9 988.7
нст 1 16 км ясно +10.0 +3.3 63 +9 +9 1013.3 989.4 +10.0 +16.1
штиль 0 16 км ясно +8.3 +3.3 71 +8 +8 1014.1 990.1
штиль 0 16 км ясно +7.2 +2.8 74 +7 +7 1014.5 990.4
штиль 0 16 км ясно +7.2 +2.8 74 +7 +7 1015.0 990.7
штиль 0 16 км ясно +6.7 +2.8 76 +6 +6 1015.5 991.4
штиль 0 16 км ясно +5.6 +2.8 82 +5 +5 1015.6 991.4
штиль 0 16 км ясно +4.4 +1.7 83 +3 +3 1015.4 991.4 +4.4 +10.0
штиль 0 16 км ясно +3.3 +1.1 85 +2 +2 1015.2 991.1
штиль 0 16 км ясно +2.2 0.0 85 +1 +1 1015.2 991.1
штиль 0 16 км ясно +1.1 0.0 92 0 0 1015.5 991.4
штиль 0 16 км ясно +1.1 -0.6 88 0 0 1015.7 991.4
штиль 0 16 км ясно +2.2 +0.6 89 +1 +1 1015.7 991.4
штиль 0 16 км ясно +5.0 +1.1 76 +4 +6 1015.4 991.4 +0.6 +5.6
штиль 0 16 км ясно +10.6 +2.2 56 +10 +15 1014.8 990.7
В 2 16 км ясно +13.3 -2.8 33 +12 +17 1014.4 990.4
нст 1 16 км ясно +15.0 -2.2 31 +15 +24 1014.0 989.7
СВ 1 16 км ясно +15.6 -2.2 29 +15 +28 опасность
простуды
1013.6 989.4
В 2 16 км 5/0 2400 м
[Ac]
+16.1 -1.1 31 +16 +23 1012.7 988.7
ЮВ 3
{4}
16 км 10/0 2550 м
[Ac]
+16.1 -2.2 28 +15 +17 1012.0 988.1 +5.6 +17.8
В 2 16 км 10/0 2700 м
[Ac]
+16.1 -1.1 31 +16 +19 1011.5 987.4
Местоположение метеостанции Harriman-And-West Airport: широта 42.6972 долгота -73.1703 высота над уровнем моря 199 м.
В архиве по умолчанию представлена погода в Норт Адамс за последние 1-2 суток. Обновление информации о фактической погоде в базе происходит ежечасно! Архивные данные за месяц целиком и за предыдущие месяцы Вы можете получить, выбрав интересующий диапазон дат из раскрывающегося списка и нажав кнопку "Ввод!".
Внимание! Архив погоды МЕТАР в базе сайта по станциям, не включенным в климатический монитор, хранится не более 60 дней. Нет смысла пытаться выбрать более раннюю дату.
*Определитесь, кто Вы:
Внимание! Время в таблицах - местное (без учета летнего времени). Для получения всемирного времени необходимо вычесть поправку, которая равна -5 ч.
Смотрите также архив погоды в соседних городах и на ближайших метеорологических станциях:
Партнеры нашего сайта:      
Пояснения к столбцам:
  • Ветер - указаны скорость ветра в м/с - средняя за 10 мин, порывы в срок и между сроками (в фигурных скобках) и направление, откуда дует ветер: С - северный,
  • СВ - северо-восточный, В - восточный, ЮВ - юго-восточный, Ю - южный, ЮЗ - юго-западный, З - западный, СЗ - северо-западный.
  • Видимость - горизонтальная дальность видимости в метрах или километрах. При видимости от 1 до 10 км при отсутствии осадков обычно наблюдается дымка, при ухудшении видимости до 1 км и менее - туман. В сухую погоду видимость может ухудшаться дымом, пылью или мглою.
  • Явления - указаны атмосферные явления, наблюдавшиеся в срок или в последний час перед сроком; фигурными скобками обозначены явления, наблюдавшиеся между сроками (за 1-3 часа до срока); квадратными скобками обозначены град или гололедные отложения с указанием их диаметра в мм.
  • Облачность - указаны через наклонную черту общая и нижняя облачность в баллах и высота нижней границы облаков в метрах; квадратными скобками обозначены формы облаков: Ci - перистые, Cs - перисто-слоистые, Cc - перисто-кучевые, Ac - высококучевые, As - высокослоистые, Sc - слоисто-кучевые, Ns - слоисто-дождевые, Cu - кучевые, Cb - кучево-дождевые. Подробнее классификацию облаков см. в Атласе облаков (PDF).
  • T - Температура воздуха - температура, измеренная на высоте 2 м над землей.
  • Td - Температура точки росы - температура, при понижении до которой содержащийся в воздухе водяной пар достигнет насыщения.
  • f - Относительная влажность воздуха - влажноcть воздуха, измеренная на высоте 2 м над землей.
  • Te - Эффективная температура - температура, которую ощущает одетый по сезону человек в тени. Характеристика душности погоды. При расчете учитывается влияние влажности воздуха и скорости ветра на теплоощущения человека.
  • Tes - Эффективная температура на солнце - температура, которую ощущает человек, с поправкой на солнечный нагрев. Характеристика знойности погоды. Зависит от высоты солнца над горизонтом, облачности и скорости ветра. Ночью, в пасмурную погоду, а также при ветре 12 м/с и более поправка равна нулю.
  • P - Атмосферное давление - приведенное к уровню моря атмосферное давление.
  • Po - Атмосферное давление - измеренное на уровне метеостанции атмосферное давление.
  • Tmin - Минимальная температура - минимум температуры воздуха на высоте 2 м над землей.
  • Tmax - Максимальная температура - максимум температуры воздуха на высоте 2 м над землей.
  • R - Количество осадков - Количество выпавших осадков за период времени, мм. При наведении курсора мыши на число - период времени, за который выпало указанное количество осадков.
  • R24 - Количество осадков - Количество выпавших осадков за 24 часа, мм.
  • S - Снежный покров - Высота снежного покрова, см. При наведении курсора мыши на число - состояние снежного покрова и степень покрытия местности в баллах.